Weather in Levuka

Fiji     17°40′58″S   178°49′58″E
temp.,
°C
wind,
m/s
gust,
m/s
humid.,
%
clouds,
%
prec.,
mm/h
press.,
hPa
HPBL,
m
12 may, wed
wed1200:00+26ese101178100 3.6 1014972
03:00+26ese101178100 1.5 1013929
06:00+26ese101179100 2.9 1014934
09:00+26ese10107732 0.5 1015953
12:00+26ese997411 0.6 10141039
15:00+26ese897129 0.1 10121199
18:00+27ese897230 0.3 10131428
21:00+26ese99756 0.6 10151036
13 may, thu
thu1300:00+26ese99767 1.1 1014971
03:00+26ese99745 0.4 10131022
06:00+26ese99745 0.7 10131032
09:00+26ese897315 0.3 10151060
12:00+26ese887313 0.6 1013974
15:00+26ese8869100 0.1 10111042
18:00+26ese6666100 0.1 10131134
21:00+26ese7664100 0.0 10141196
14 may, fri
fri1400:00+26ese6775100 0.1 1013896
03:00+26e6771100 0.3 1012966
06:00+26e4470100 0.4 1013862
09:00+26ene3474100 0.4 1015601
12:00+26e5571100 0.6 1013888
15:00+26e5572100 0.1 1011828
18:00+26ese5571100 0.1 1013819
21:00+27e8876100 0.0 1014804
15 may, sat
sat1500:00+26ene7676100 0.0 1013766
03:00+26e6676100 0.0 1012751
06:00+26ene5577100 1.0 1013716
09:00+26ne556877 0.6 1016736
12:00+25nne6575100 0.9 1015447
15:00+24n2272100 0.3 1013156
18:00+26e346862 0.3 1014700
21:00+26e45735 0.1 1015838
16 may, sun
sun1600:00+26ese66765 0.2 1014822
03:00+25e778312 2.1 1014607
06:00+26e778095 4.1 1014706
09:00+26e88805 0.9 1015765
12:00+26e78815 5.4 1014644
15:00+26ene66765 2.4 1012690
18:00+26e55775 2.4 1013628
21:00+26e557912 0.4 1015486